Location: Unspecified
(0.0000°N, 0.0000°E)
Time: 12:40:46
(UTC+00:00)

Cosmos 1861 - Visible Passes

Search period start: 26 September 2022 00:00
Search period end: 06 October 2022 00:00
Orbit: 979 x 998 km, 82.9° (Epoch: 25 September)

Date Brightness Start Highest point End Pass type
(mag) Time Alt. Az. Time Alt. Az. Time Alt. Az.
26 Sep 8.1 03:15:23 10° NE 03:20:03 22° E 03:24:44 10° SE visible
26 Sep 6.7 05:00:06 10° NW 05:05:22 29° W 05:10:41 10° SSW visible
27 Sep 6.6 03:43:11 10° N 03:49:15 53° E 03:55:21 10° SSE visible
28 Sep 5.9 04:12:16 10° NNW 04:18:27 65° W 04:24:41 10° S visible
29 Sep 8.0 02:57:29 10° NE 03:02:20 24° E 03:07:12 10° SE visible
29 Sep 6.8 04:42:32 10° NW 04:47:40 27° W 04:52:51 10° SSW visible
30 Sep 6.5 03:31:13 57° ENE 03:31:32 57° E 03:37:41 10° SSE visible
01 Oct 6.4 04:02:32 44° SSW 04:02:32 44° SSW 04:06:56 10° S visible
02 Oct 8.3 02:48:08 16° SE 02:48:08 16° SE 02:49:39 10° SE visible
02 Oct 7.5 04:33:10 17° SW 04:33:10 17° SW 04:34:58 10° SSW visible
03 Oct 8.0 03:18:27 18° SSE 03:18:27 18° SSE 03:20:01 10° SSE visible
04 Oct 8.1 03:48:33 13° S 03:48:33 13° S 03:49:11 10° S visible
